TimeEDT,TemperatureF,Dew PointF,Humidity,Sea Level PressureIn,VisibilityMPH,Wind Direction,Wind SpeedMPH,Gust SpeedMPH,PrecipitationIn,Events,Conditions,WindDirDegrees,DateUTC
12:52 AM,80.1,73.9,81,29.90,10.0,SW,8.1,-,N/A,,Clear,230,2013-07-21 04:52:00
1:52 AM,80.1,73.0,79,29.90,10.0,SW,8.1,-,N/A,,Clear,220,2013-07-21 05:52:00
2:52 AM,80.1,72.0,76,29.89,10.0,WSW,10.4,-,N/A,,Clear,240,2013-07-21 06:52:00
3:52 AM,79.0,72.0,79,29.89,10.0,WSW,10.4,-,N/A,,Clear,250,2013-07-21 07:52:00
4:52 AM,77.0,72.0,84,29.89,10.0,West,4.6,-,N/A,,Clear,260,2013-07-21 08:52:00
5:52 AM,75.9,72.0,87,29.91,10.0,West,4.6,-,N/A,,Clear,260,2013-07-21 09:52:00
6:09 AM,75.2,71.6,89,29.91,9.0,West,4.6,-,N/A,,Mostly Cloudy,270,2013-07-21 10:09:00
6:52 AM,77.0,72.0,84,29.91,8.0,WSW,5.8,-,N/A,,Mostly Cloudy,240,2013-07-21 10:52:00
7:52 AM,79.0,73.0,82,29.94,10.0,West,6.9,-,N/A,,Scattered Clouds,260,2013-07-21 11:52:00
8:52 AM,82.0,72.0,71,29.93,10.0,SW,4.6,-,N/A,,Scattered Clouds,220,2013-07-21 12:52:00
9:52 AM,84.9,70.0,61,29.93,10.0,North,3.5,-,N/A,,Scattered Clouds,360,2013-07-21 13:52:00
10:52 AM,84.9,70.0,61,29.94,10.0,Variable,3.5,-,N/A,,Mostly Cloudy,0,2013-07-21 14:52:00
11:52 AM,87.1,70.0,57,29.95,10.0,NE,5.8,-,N/A,,Mostly Cloudy,50,2013-07-21 15:52:00
12:52 PM,84.9,70.0,61,29.94,10.0,ESE,8.1,-,N/A,,Mostly Cloudy,120,2013-07-21 16:52:00
1:52 PM,86.0,71.1,61,29.93,10.0,SE,8.1,-,N/A,,Mostly Cloudy,130,2013-07-21 17:52:00
2:52 PM,88.0,73.0,61,29.92,10.0,SSE,10.4,-,N/A,,Mostly Cloudy,150,2013-07-21 18:52:00
3:52 PM,87.1,75.0,67,29.91,10.0,SE,11.5,-,N/A,,Mostly Cloudy,140,2013-07-21 19:52:00
4:52 PM,86.0,73.9,67,29.89,10.0,Variable,6.9,-,N/A,,Overcast,0,2013-07-21 20:52:00
5:52 PM,84.0,75.9,76,29.89,10.0,SSE,5.8,-,N/A,Thunderstorm,Thunderstorm,150,2013-07-21 21:52:00
6:01 PM,84.2,77.0,79,29.89,10.0,Calm,Calm,-,N/A,,Clear,0,2013-07-21 22:01:00
6:38 PM,82.4,77.0,84,29.91,10.0,SSE,3.5,-,0.00,Thunderstorm,Thunderstorm,150,2013-07-21 22:38:00
6:52 PM,82.9,75.9,79,29.91,10.0,Calm,Calm,-,0.00,Thunderstorm,Thunderstorm,0,2013-07-21 22:52:00
7:09 PM,82.4,78.8,89,29.91,5.0,South,3.5,-,0.00,Rain-Thunderstorm,Thunderstorms and Rain,180,2013-07-21 23:09:00
7:52 PM,77.0,73.9,90,29.91,5.0,SSW,6.9,-,0.04,Rain,Rain,200,2013-07-21 23:52:00
7:59 PM,77.0,73.4,89,29.92,5.0,SW,3.5,-,0.00,Rain-Thunderstorm,Light Thunderstorms and Rain,230,2013-07-21 23:59:00
8:15 PM,77.0,73.4,89,29.92,10.0,WNW,8.1,-,0.00,Thunderstorm,Thunderstorm,290,2013-07-22 00:15:00
8:37 PM,75.2,73.4,94,29.92,10.0,West,6.9,-,0.00,,Partly Cloudy,270,2013-07-22 00:37:00
8:52 PM,75.9,73.9,94,29.94,10.0,SSW,5.8,-,0.00,Thunderstorm,Thunderstorm,200,2013-07-22 00:52:00
9:00 PM,75.2,73.4,94,29.94,10.0,SW,5.8,-,N/A,,Partly Cloudy,220,2013-07-22 01:00:00
9:23 PM,75.2,73.4,94,29.94,10.0,SSW,5.8,-,N/A,,Mostly Cloudy,210,2013-07-22 01:23:00
9:38 PM,75.2,73.4,94,29.95,1.8,South,3.5,-,0.15,Rain,Heavy Rain,170,2013-07-22 01:38:00
9:45 PM,75.2,73.4,94,29.95,1.5,South,4.6,-,0.18,Rain,Heavy Rain,170,2013-07-22 01:45:00
9:49 PM,75.2,73.4,94,29.95,3.0,SSW,4.6,-,0.18,Rain,Light Rain,210,2013-07-22 01:49:00
9:52 PM,75.0,73.0,94,29.95,6.0,SSW,5.8,-,0.18,Rain,Light Rain,210,2013-07-22 01:52:00
10:01 PM,75.2,73.4,94,29.94,10.0,SW,6.9,-,0.00,,Mostly Cloudy,220,2013-07-22 02:01:00
10:52 PM,73.9,72.0,93,29.94,10.0,SW,3.5,-,0.00,,Clear,230,2013-07-22 02:52:00
11:52 PM,73.9,71.1,91,29.93,10.0,WNW,4.6,-,N/A,,Clear,300,2013-07-22 03:52:00